TOURFACTS.DK  
Stats and Facts from Tour de France.

Tour de France 2018 starts in 200 days
  Riders   Stages   Teams   Summits   Yearly  


 
Search by year

 2017 - St. 21:  14824 starters.
  5132 different riders.
  635 teams.
  2232 stages.
  454 restdays.
  439589.60 km.
  5653 abandonnees.


Top 3
Christopher Froome86:20:55
Rigoberto Uran86:21:49
Romain Bardet86:23:15
Warren Barguil169 pt.
Primoz Roglic80 pt.
Thomas De Gendt64 pt.
Michael Matthews359 pt.
André Greipel234 pt.
Edvald Boasson Hagen220 pt.
Simon Yates86:27:09
Louis Meintjes86:29:15
Emanuel Buchmann86:54:16
Facts from Tour de France 2009
  |   Stages.  |   Stage winners.  |   Days in yellow  |   Average speed.  |   Route.  |   Teams.  |   All riders.  |   Rookies.  |   Withdrawls.  |  

  |   GC.  |   Polka  |   Green  |   White  |   Summits. (In tour)  |   Summits. (Points)  |   Miscellaneous.  |  

Stage 18 on 23 - 07 - 2009
         Owning:    Alberto Contador    
Pick a stage:  1 2 3 4 5 6 7 8 9 10 11 12 13 14 15 16 17 18 19 20 21
  AnnecyAnnecy | Dist: 40.50 km.
Cat: 3Côte de BluffyAUSCadel Evans
4 points
 

Average speed for all riders in stage:  46,285 km./hr.
    Place:Name:Team:Time:Km/h:
ESPAlberto ContadorKAZAstana Pro Team00:48:30  +  00:00:00=50,103 
SUIFabian CancellaraDNKTeam Saxo Bank00:48:33  +  00:00:03=50,051 
RUSMikhail IgnatyevRUSTeam Katusha00:48:45  +  00:00:15=49,846 
4 SWEGustav LarssonDNKTeam Saxo Bank00:49:03  +  00:00:33=49,541 
5 MLTDavid MillarUSAGarmin-Slipstream00:49:11  +  00:00:41=49,407 
6 BELBradley WigginsUSAGarmin-Slipstream00:49:13  +  00:00:43=49,374 
7 ESPLuis León SánchezESPCaisse d´Epargne00:49:14  +  00:00:44=49,357 
8 FRAChristophe MoreauFRAAgritubel00:49:15  +  00:00:45=49,340 
9 GERAndréas KlödenKAZAstana Pro Team00:49:24  +  00:00:54=49,190 
10 USADavid ZabriskieUSAGarmin-Slipstream00:49:32  +  00:01:02=49,058 
11 GERTony MartinUSATeam Columbia-HTC00:49:34  +  00:01:04=49,025 
12 AUSCadel EvansBELSilence-Lotto00:49:44  +  00:01:14=48,861 
13 BELMaxime MonfortUSATeam Columbia-HTC00:49:49  +  00:01:19=48,779 
14 FRASylvain ChavanelBELQuick Step00:49:50  +  00:01:20=48,763 
15 RUSVladimir KarpetsRUSTeam Katusha00:49:58  +  00:01:28=48,632 
16 USALance ArmstrongKAZAstana Pro Team00:50:00  +  00:01:30=48,600 
17 NEDStef ClementNLDRabobank00:50:07  +  00:01:37=48,487 
18 GERBert GrabschUSATeam Columbia-HTC00:50:08  +  00:01:38=48,471 
19 AUSMichael RogersUSATeam Columbia-HTC00:50:08  +  00:01:38=48,471 
20 LUXKim KirchenUSATeam Columbia-HTC00:50:12  +  00:01:42=48,406 
21 LUXAndy SchleckDNKTeam Saxo Bank00:50:15  +  00:01:45=48,358 
22 ESPMikel AstarlozaESPEuskaltel - Euskadi00:50:18  +  00:01:48=48,310 
23 ITAMarzio BruseghinITALampre-N.G.C00:50:30  +  00:02:00=48,119 
24 USAChristian VandeveldeUSAGarmin-Slipstream00:50:30  +  00:02:00=48,119 
25 NEDJoost PosthumaNLDRabobank00:50:35  +  00:02:05=48,040 
26 ITAVincenzo NibaliITALiquigas00:50:36  +  00:02:06=48,024 
27 GERLinus GerdemannDEUTeam Milram00:50:41  +  00:02:11=47,945 
28 SVKPeter VelitsDEUTeam Milram00:50:43  +  00:02:13=47,913 
29 NEDNiki TerpstraDEUTeam Milram00:50:44  +  00:02:14=47,898 
30 GERSebastian LangBELSilence-Lotto00:50:47  +  00:02:17=47,850 
31 DENBrian VandborgITALiquigas00:50:48  +  00:02:18=47,835 
32 BELJurgen Van Den BroeckBELSilence-Lotto00:50:56  +  00:02:26=47,709 
33 GERMarkus FothenDEUTeam Milram00:51:02  +  00:02:32=47,616 
34 USAGeorge HincapieUSATeam Columbia-HTC00:51:04  +  00:02:34=47,585 
35 LUXFränk SchleckDNKTeam Saxo Bank00:51:04  +  00:02:34=47,585 
36 ESPLuis RodriguezESPCaisse d´Epargne00:51:06  +  00:02:36=47,554 
37 FRAChristophe RiblonFRAAg2r La Mondiale00:51:06  +  00:02:36=47,554 
38 BELStijn DevolderBELQuick Step00:51:07  +  00:02:37=47,538 
39 UKRYaroslav PopovychKAZAstana Pro Team00:51:10  +  00:02:40=47,492 
40 FRASandy CasarFRAFrancaise Des Jeux00:51:15  +  00:02:45=47,415 
41 ESPJosé Ivan GutierrezESPCaisse d´Epargne00:51:16  +  00:02:46=47,399 
42 AUSHeinrich HausslerCHECervelo Test Team00:51:20  +  00:02:50=47,338 
43 CANRyder HesjedalUSAGarmin-Slipstream00:51:21  +  00:02:51=47,322 
44 ESPJuan Manuel GarateNLDRabobank00:51:22  +  00:02:52=47,307 
45 FRALaurent LefèvreFRABbox Bouygues Telecom00:51:27  +  00:02:57=47,230 
46 NEDMartijn MaaskantUSAGarmin-Slipstream00:51:30  +  00:03:00=47,184 
47 FRAStéphane AugeFRACofidis Le Credit En Ligne00:51:33  +  00:03:03=47,139 
48 GERGrischa NiermannNLDRabobank00:51:37  +  00:03:07=47,078 
49 BELSébastien RosselerBELQuick Step00:51:39  +  00:03:09=47,047 
50 FRANicolas RocheFRAAg2r La Mondiale00:51:41  +  00:03:11=47,017 
51 ESPHaimar ZubeldiaKAZAstana Pro Team00:51:41  +  00:03:11=47,017 
52 BLRAliaksandr KuchynskiITALiquigas00:51:42  +  00:03:12=47,002 
53 CZERoman KreuzigerITALiquigas00:51:46  +  00:03:16=46,941 
54 AUSStuart O'GradyDNKTeam Saxo Bank00:51:51  +  00:03:21=46,866 
55 FRAChristophe Le MevelFRAFrancaise Des Jeux00:51:52  +  00:03:22=46,851 
56 FRAPierrick FédrigoFRABbox Bouygues Telecom00:51:53  +  00:03:23=46,836 
57 NEDKoen De KortNLDSkil-Shimano00:51:57  +  00:03:27=46,776 
58 FRAMaxime BouetFRAAgritubel00:51:59  +  00:03:29=46,746 
59 AUSBrett LancasterCHECervelo Test Team00:52:02  +  00:03:32=46,701 
60 FRAWilliam BonnetFRABbox Bouygues Telecom00:52:03  +  00:03:33=46,686 
61 DENNicki SørensenDNKTeam Saxo Bank00:52:05  +  00:03:35=46,656 
62 POLMarcin SapaITALampre-N.G.C00:52:06  +  00:03:36=46,641 
63 GERChristian KneesDEUTeam Milram00:52:06  +  00:03:36=46,641 
64 GERSimon GeschkeNLDSkil-Shimano00:52:06  +  00:03:36=46,641 
65 FRAMickael DelageBELSilence-Lotto00:52:07  +  00:03:37=46,626 
66 DENChris Anker SørensenDNKTeam Saxo Bank00:52:08  +  00:03:38=46,611 
67 SLOSimon SpilakITALampre-N.G.C00:52:10  +  00:03:40=46,581 
68 RUSYury TrofimovFRABbox Bouygues Telecom00:52:13  +  00:03:43=46,537 
69 FRAGeoffroy LequatreFRAAgritubel00:52:14  +  00:03:44=46,522 
70 ESPCarlos SastreCHECervelo Test Team00:52:17  +  00:03:47=46,478 
71 FRAAmaël MoinardFRACofidis Le Credit En Ligne00:52:18  +  00:03:48=46,463 
72 ITARinaldo NocentiniFRAAg2r La Mondiale00:52:19  +  00:03:49=46,448 
73 FINJussi VeikkanenFRAFrancaise Des Jeux00:52:24  +  00:03:54=46,374 
74 FRARémi PauriolFRACofidis Le Credit En Ligne00:52:29  +  00:03:59=46,300 
75 GERGerald CiolekDEUTeam Milram00:52:37  +  00:04:07=46,183 
76 ESPCarlos BarredoBELQuick Step00:52:38  +  00:04:08=46,168 
77 FRABrice FeilluFRAAgritubel00:52:38  +  00:04:08=46,168 
78 JPNFumiyuki BeppuNLDSkil-Shimano00:52:41  +  00:04:11=46,125 
79 RUSDenis MenchovNLDRabobank00:52:42  +  00:04:12=46,110 
80 RUSNikolai TrusovRUSTeam Katusha00:52:45  +  00:04:15=46,066 
81 AUSMatthew LloydBELSilence-Lotto00:52:46  +  00:04:16=46,052 
82 FRAStéphane GoubertFRAAg2r La Mondiale00:52:48  +  00:04:18=46,023 
83 FRAAnthony GeslinFRAFrancaise Des Jeux00:52:51  +  00:04:21=45,979 
84 GERJohannes FröhlingerDEUTeam Milram00:52:55  +  00:04:25=45,921 
85 ESPIñigo CuestaCHECervelo Test Team00:52:56  +  00:04:26=45,907 
86 NEDSteven de JonghBELQuick Step00:52:59  +  00:04:29=45,863 
87 ESPIgor AntonESPEuskaltel - Euskadi00:53:01  +  00:04:31=45,835 
88 FRAHubert DupontFRAAg2r La Mondiale00:53:02  +  00:04:32=45,820 
89 NZLHayden RoulstonCHECervelo Test Team00:53:03  +  00:04:33=45,806 
90 ESPJose Luis ArrietaFRAAg2r La Mondiale00:53:06  +  00:04:36=45,763 
91 ITAFranco PellizottiITALiquigas00:53:07  +  00:04:37=45,748 
92 NEDLaurens ten DamNLDRabobank00:53:09  +  00:04:39=45,720 
93 NEDAlbert TimmerNLDSkil-Shimano00:53:09  +  00:04:39=45,720 
94 ITAAlessandro BallanITALampre-N.G.C00:53:10  +  00:04:40=45,705 
95 FRAArnaud CoyotESPCaisse d´Epargne00:53:10  +  00:04:40=45,705 
96 ESPGorka VerdugoESPEuskaltel - Euskadi00:53:11  +  00:04:41=45,691 
97 ESPEgoi MartínezESPEuskaltel - Euskadi00:53:13  +  00:04:43=45,662 
98 FRAJérémy RoyFRAFrancaise Des Jeux00:53:15  +  00:04:45=45,634 
99 FRACyril LemoineNLDSkil-Shimano00:53:16  +  00:04:46=45,620 
100 COLLeonardo DuqueFRACofidis Le Credit En Ligne00:53:17  +  00:04:47=45,605 
101 ITADaniele BennatiITALiquigas00:53:17  +  00:04:47=45,605 
102 FRASébastien MinardFRACofidis Le Credit En Ligne00:53:17  +  00:04:47=45,605 
103 FRAPierre RollandFRABbox Bouygues Telecom00:53:20  +  00:04:50=45,563 
104 ITAMauro SantambrogioITALampre-N.G.C00:53:23  +  00:04:53=45,520 
105 FRAThierry HupondNLDSkil-Shimano00:53:24  +  00:04:54=45,506 
106 BELGreg Van AvermaetBELSilence-Lotto00:53:25  +  00:04:55=45,491 
107 ESPJuan José OrozESPEuskaltel - Euskadi00:53:25  +  00:04:55=45,491 
108 BELFrederik WillemsITALiquigas00:53:26  +  00:04:56=45,477 
109 SUIDavid LoosliITALampre-N.G.C00:53:31  +  00:05:01=45,406 
110 FRANicolas VogondyFRAAgritubel00:53:33  +  00:05:03=45,378 
111 ITAFabio SabatiniITALiquigas00:53:33  +  00:05:03=45,378 
112 JPNYukiya ArashiroFRABbox Bouygues Telecom00:53:35  +  00:05:05=45,350 
113 RUSAlexandre BotcharovRUSTeam Katusha00:53:36  +  00:05:06=45,336 
114 FRAJonathan HivertNLDSkil-Shimano00:53:38  +  00:05:08=45,308 
115 FRAThomas VoecklerFRABbox Bouygues Telecom00:53:42  +  00:05:12=45,251 
116 ARGJuan Antonio FlechaNLDRabobank00:53:44  +  00:05:14=45,223 
117 PORSergio PaulinhoKAZAstana Pro Team00:53:44  +  00:05:14=45,223 
118 COLRigoberto UranESPCaisse d´Epargne00:53:46  +  00:05:16=45,195 
119 USADanny PateUSAGarmin-Slipstream00:53:46  +  00:05:16=45,195 
120 FINCharles WegeliusBELSilence-Lotto00:53:48  +  00:05:18=45,167 
121 NORThor HushovdCHECervelo Test Team00:53:53  +  00:05:23=45,097 
122 FRASylvain CalzatiFRAAgritubel00:53:53  +  00:05:23=45,097 
123 FRASaid HaddouFRABbox Bouygues Telecom00:53:54  +  00:05:24=45,083 
124 FRAChristophe KernFRACofidis Le Credit En Ligne00:53:58  +  00:05:28=45,028 
125 ESPRuben PerezESPEuskaltel - Euskadi00:53:58  +  00:05:28=45,028 
126 FRABenoit VaugrenardFRAFrancaise Des Jeux00:53:58  +  00:05:28=45,028 
127 IOMMark CavendishUSATeam Columbia-HTC00:53:59  +  00:05:29=45,014 
128 FRAJérôme PineauBELQuick Step00:54:00  +  00:05:30=45,000 
129 ESPJosé Joaquin RojasESPCaisse d´Epargne00:54:04  +  00:05:34=44,945 
130 ITAMatteo TosattoBELQuick Step00:54:08  +  00:05:38=44,875 
131 ITAFilippo PozzatoRUSTeam Katusha00:54:11  +  00:05:41=44,848 
132 ESPAmets TxurrukaESPEuskaltel - Euskadi00:54:12  +  00:05:42=44,834 
133 NZLJulian DeanUSAGarmin-Slipstream00:54:18  +  00:05:48=44,751 
134 BELJohan VansummerenBELSilence-Lotto00:54:21  +  00:05:51=44,710 
135 RUSSerguei IvanovRUSTeam Katusha00:54:21  +  00:05:51=44,710 
136 BELStaf ScheirlinckxBELSilence-Lotto00:54:22  +  00:05:52=44,697 
137 FRADavid MoncoutiéFRACofidis Le Credit En Ligne00:54:27  +  00:05:57=44,628 
138 AUTBernhard EiselUSATeam Columbia-HTC00:54:29  +  00:05:59=44,601 
139 FRAAlexandre PichotFRABbox Bouygues Telecom00:54:32  +  00:06:02=44,560 
140 ESPAlan PerezESPEuskaltel - Euskadi00:54:34  +  00:06:04=44,533 
141 KAZDmitriy MuravyevKAZAstana Pro Team00:54:38  +  00:06:08=44,478 
142 AUSMark RenshawUSATeam Columbia-HTC00:54:41  +  00:06:11=44,438 
143 UKRVolodymir GustovCHECervelo Test Team00:54:44  +  00:06:14=44,397 
144 ESPOscar FreireNLDRabobank00:54:49  +  00:06:19=44,330 
145 SUIGregory RastKAZAstana Pro Team00:54:51  +  00:06:21=44,303 
146 ITAAlessandro VanottiITALiquigas00:54:54  +  00:06:24=44,262 
147 FRASamuel DumoulinFRACofidis Le Credit En Ligne00:54:57  +  00:06:27=44,222 
148 GERAndreas KlierCHECervelo Test Team00:54:58  +  00:06:28=44,209 
149 ITADaniele RighiITALampre-N.G.C00:55:08  +  00:06:38=44,075 
150 USATyler FarrarUSAGarmin-Slipstream00:55:09  +  00:06:39=44,062 
151 BLRYauheni HutarovichFRAFrancaise Des Jeux00:55:12  +  00:06:42=44,022 
152 ESPBingen FernandezFRACofidis Le Credit En Ligne00:55:17  +  00:06:47=43,955 
153 BELStijn VandenberghRUSTeam Katusha00:55:19  +  00:06:49=43,929 
154 ESPDavid ArroyoESPCaisse d´Epargne00:55:21  +  00:06:51=43,902 
155 FRALloyd MondoryFRAAg2r La Mondiale00:55:24  +  00:06:54=43,863 
156 GERFabian WegmannDEUTeam Milram00:56:03  +  00:07:33=43,354 
157 ITAMarco BandieraITALampre-N.G.C00:56:41  +  00:08:11=42,870 

Withdrawls: 3
 
Rider
Team
Reason
3  ESPJosé Ángel GomezCHECervelo Test TeamDid not finish
83  FRACyril DesselFRAAg2r La MondialeDid not finish
199  NEDKenny van HummelNLDSkil-ShimanoDid not finish

Todays birthdays.

1883  Cyrille Van Hauwaert
1885  Pierino Albini
1889  Joseph Vandaele
1891  Antoine Rière
1892  Charles Arnulf
1895  Giuseppe Ruffoni
1905  Edmond Berenger
1905  Leon Chene
1905  Paul Le Drogo
1923  Georges Gilles
1935  Jean Anastasi
1938  Tommaso De Pra
1944  Bernard Vifian
1949  Paul Aerts
1950  Roy Schuiten
1962  Antonio Castro
1962  Charly Mottet
1964  Roberto Conti
1964  Denis Leproux
1970  Jo Planckaert